Flag for India Weather past 2 weeks in Chandigarh, Chandigarh, India

Now
75 °F

Fog.


Feels Like: 73 °F
Forecast: 68 / 92 °F
Wind: No wind

Location: Amritsar Airport

Current Time: Oct 1, 2014 at 6:13:46 AM

Latest Report: Oct 1, 2014 at 5:00 AM


Visibility: 2 mi

Pressure: 29.86 "Hg

Humidity: 100%

Dew point: 75 °F

Location of ChandigarhLocation

Historic Weather in Chandigarh — Graph

°F

Chandigarh temperature yesterday

Maximum temperature yesterday: 93 °F (at 1:30 PM)
Minimum temperature yesterday: 73 °F (at 5:00 AM)
Average temperature yesterday: 83 °F

Past Weeks' High & Low Weather Summary

 TemperatureHumidityPressure
High95 °F (Sep 18, 3:00 PM)100% (Sep 16, 4:00 AM)29.89 "Hg (Sep 16, 4:00 AM)
Low72 °F (Sep 17, 6:00 AM)44% (Sep 28, 2:00 PM)29.59 "Hg (Sep 17, 4:30 AM)
Average83 °F80%29.74 "Hg
* Reported Sep 16 3:30 AM — Oct 1 4:00 AM, Chandigarh, Weather by CustomWeather, © 2014

Note: Actual official high and low records may vary slightly from our data, if they occured in-between our weather recording intervals... More about our weather records

Advertising

Chandigarh weather history for previous 24 hours

 ConditionsComfort  
Time TempWeatherWind HumidityBarometerVisibility
4:00 AM
Oct 1
75 °FFog.No wind100%29.86 "Hg1 mi
3:30 AM75 °FFog.No wind100%29.86 "Hg1 mi
3:00 AM75 °FFog.No wind100%29.86 "Hg1 mi
2:30 AM77 °FFog.No wind94%29.86 "Hg1 mi
1:30 AM77 °FFog.No wind100%29.86 "Hg1 mi
1:00 AM77 °FFog.No wind100%29.86 "Hg2 mi
12:30 AM79 °FFog.No wind94%29.86 "Hg2 mi
12:00 AM79 °FFog.No wind94%29.86 "Hg2 mi
11:30 PM
Sep 30
79 °FFog.No wind94%29.86 "Hg2 mi
11:00 PM79 °FFog.No wind94%29.86 "Hg2 mi
10:30 PM81 °FFog.No wind89%29.86 "Hg2 mi
10:00 PM82 °FFog.7 mph84%29.86 "Hg2 mi
9:30 PM82 °FFog.1 mph84%29.86 "Hg2 mi
9:00 PM81 °FFog.No wind89%29.86 "Hg2 mi
8:30 PM82 °FFog.No wind84%29.83 "Hg2 mi
8:00 PM84 °FPassing clouds.No wind79%29.83 "Hg2 mi
7:30 PM84 °FPassing clouds.No wind74%29.83 "Hg2 mi
6:30 PM86 °FScattered clouds.5 mph70%29.83 "Hg3 mi
6:00 PM88 °FScattered clouds.No wind62%29.80 "Hg3 mi
5:30 PM88 °FPartly sunny.No wind62%29.80 "Hg3 mi
5:00 PM90 °FPartly sunny.1 mph59%29.80 "Hg3 mi
4:30 PM91 °FScattered clouds.2 mph52%29.80 "Hg4 mi
4:00 PM91 °FScattered clouds.2 mph52%29.80 "Hg4 mi
3:30 PM93 °FScattered clouds.2 mph49%29.80 "Hg4 mi
3:00 PM91 °FScattered clouds.6 mph52%29.80 "Hg4 mi
2:30 PM93 °FScattered clouds.3 mph49%29.80 "Hg4 mi
2:00 PM93 °FScattered clouds.No wind47%29.83 "Hg4 mi
1:30 PM93 °FScattered clouds.2 mph49%29.83 "Hg4 mi
1:00 PM91 °FScattered clouds.2 mph52%29.83 "Hg4 mi
12:30 PM91 °FScattered clouds.2 mph52%29.86 "Hg4 mi
12:00 PM90 °FScattered clouds.2 mph55%29.86 "Hg3 mi
11:30 AM88 °FScattered clouds.2 mph59%29.86 "Hg3 mi
11:00 AM88 °FHaze.2 mph62%29.86 "Hg3 mi
10:30 AM88 °FHaze.2 mph62%29.86 "Hg3 mi
10:00 AM86 °FHaze.2 mph70%29.86 "Hg2 mi
9:30 AM86 °FHaze.3 mph70%29.86 "Hg2 mi
9:00 AM82 °FFog.No wind79%29.86 "Hg2 mi
8:30 AM81 °FFog.No wind89%29.86 "Hg2 mi
8:00 AM79 °FFog.No wind94%29.83 "Hg2 mi
7:00 AM75 °FFog.No wind100%29.83 "Hg2 mi
6:30 AM75 °FFog.No wind94%29.80 "Hg2 mi
6:00 AM75 °FFog.No wind94%29.80 "Hg2 mi
Weather by CustomWeather, © 2014

See weather overviewHow to use our weather pages